Location: Bidart
(43.4376°N, 1.5913°W)
Time: 19:32:17
(UTC+00:00)

Okean-O - Pass Details

Date: 19 May 2025
Orbit: 628 x 631 km, 98.0° (Epoch: 22 June)

Event Time Altitude Azimuth Distance (km) Brightness Sun altitude
Exits shadow 21:41:08 12° 211° (SSW) 1,901 4.8 -18.7°
Maximum altitude 21:44:28 26° 265° (W) 1,256 4.4 -19.1°
Drops below altitude 10° 21:48:09 10° 322° (NW) 2,020 6.4 -19.4°
Sets 21:50:40 0° 335° (NNW) 2,933 7.6 -19.7°
